Theta_e
317 313 312 311 311 314 329 328 329 327 326 326 314 311 316 329 330 330 330 327 324 323 322 323 321 322 321 319 319 320 327 326 316
323 318 314 313 311 311 320 320 321 319 313 312 314 317 322 329 329 330 328 328 325 325 325 326 328 330 330 328 323 323 321 326 319
326 323 316 315 315 315 315 315 315 316 317 319 320 321 322 329 330 329 329 329 326 327 327 329 329 328 328 329 331 328 325 328 324
328 327 318 315 316 317 317 317 318 319 321 322 322 323 324 329 330 326 329 329 326 326 326 327 324 324 324 325 326 328 331 332 330
331 330 319 316 317 317 318 319 320 322 323 323 323 326 328 328 328 328 327 328 325 325 325 325 324 325 323 322 322 322 322 328 330
331 328 319 317 318 319 321 322 322 326 328 328 325 327 327 327 326 326 326 323 320 320 320 319 317 316 314 314 314 315 318 319 322
330 330 323 320 320 322 323 324 326 328 328 326 324 324 323 323 322 321 319 319 316 314 312 312 312 312 312 312 312 312 312 313 313
331 327 320 322 323 327 327 329 328 326 326 324 324 320 320 320 320 319 316 312 310 310 310 310 310 310 310 310 309 308 308 308 308
324 326 328 326 328 329 328 328 327 325 324 323 323 322 320 316 314 310 310 309 308 307 308 308 307 307 306 306 305 305 305 306 306
328 329 328 329 329 328 328 326 325 324 322 321 317 311 310 309 308 307 307 306 306 305 305 305 304 304 304 304 305 305 305 304 303
330 329 329 329 327 326 326 326 325 322 318 313 310 309 307 306 304 304 304 304 304 303 303 303 303 304 304 304 302 301 300 300 299
331 330 328 327 326 326 325 325 324 317 311 311 308 306 304 303 303 303 303 303 303 302 303 303 302 301 300 300 300 299 298 298 298
330 328 327 326 326 326 324 323 316 311 312 310 307 305 304 303 302 302 302 302 302 302 301 301 299 298 298 298 297 297 297 297 297
329 327 327 327 326 325 324 317 311 312 312 310 307 305 303 302 302 301 302 301 300 300 299 298 298 297 297 297 297 297 296 296 296
329 328 328 327 326 325 322 311 312 312 311 309 305 304 302 300 300 300 300 299 299 299 298 297 297 296 296 296 295 296 296 295 295
329 328 328 328 326 325 312 311 313 312 311 308 304 302 302 301 301 300 300 299 298 298 297 296 296 296 295 295 295 295 295 295 294
330 329 329 329 326 321 311 312 312 311 309 306 304 302 301 301 302 300 299 299 297 296 296 296 295 295 295 294 294 293 293 293 293
330 330 330 329 326 314 311 312 312 311 309 305 302 300 301 301 299 298 298 297 297 297 296 295 295 294 294 294 293 293 292 292 293
329 329 329 328 322 311 311 311 311 310 307 304 301 298 297 297 297 297 297 297 296 296 295 294 294 293 293 293 292 292 291 292 294
326 327 327 324 314 310 310 311 311 309 305 302 299 298 297 295 295 295 296 295 295 294 293 293 292 292 292 292 291 291 291 292 293
Wind_Speed
8 8 7 7 6 7 10 8 7 5 7 8 6 2 5 8 7 6 7 7 9 9 8 8 7 7 7 6 6 7 6 9 8
8 7 7 8 9 8 8 6 6 5 3 2 3 4 8 10 7 1 6 6 8 9 8 8 9 9 10 9 8 7 6 7 8
6 5 5 6 7 7 6 5 4 3 2 3 4 5 5 7 5 5 6 7 10 10 8 6 6 8 9 10 10 9 8 10 10
3 3 3 4 4 4 4 4 3 3 3 4 4 5 7 8 5 3 4 9 9 7 8 8 10 10 10 10 9 8 10 11 12
5 4 2 3 3 3 3 3 4 3 4 4 5 6 8 6 4 5 7 11 10 10 11 11 11 12 12 11 10 10 10 9 9
9 6 4 3 3 3 3 3 4 4 6 7 6 7 5 3 6 7 9 10 10 10 11 11 11 11 11 11 10 10 11 12 13
6 4 4 3 3 3 2 3 5 5 2 2 4 1 2 5 9 10 9 11 11 11 12 12 12 13 13 14 14 14 13 14 15
11 6 6 4 3 3 3 2 3 2 4 5 4 4 5 6 11 14 14 13 12 12 15 15 15 15 15 17 17 16 17 17 17
15 8 5 4 6 4 4 4 5 5 4 6 7 9 10 12 13 16 16 15 13 13 16 15 15 15 16 18 17 16 16 16 16
9 12 9 10 9 11 9 7 6 6 5 8 10 10 12 12 14 16 17 15 14 14 15 15 15 15 15 15 14 14 15 16 17
13 13 12 11 9 8 10 9 6 6 6 8 11 13 14 15 14 15 16 14 12 13 13 13 13 13 13 14 16 17 17 19 20
17 14 12 11 7 7 9 9 9 7 6 10 11 13 13 11 14 12 14 14 11 10 10 11 12 14 16 16 17 20 22 22 21
20 16 15 13 10 6 7 7 6 6 8 9 10 11 11 11 11 10 12 13 12 11 10 12 14 17 18 19 20 21 22 22 22
20 18 16 14 11 8 8 7 6 6 7 9 10 12 12 11 9 10 10 9 11 14 16 15 19 18 18 20 21 21 21 22 22
22 20 18 16 13 10 9 7 6 6 7 8 9 11 11 10 9 10 10 12 11 16 18 20 19 18 23 23 22 24 22 22 23
26 22 21 17 15 12 10 8 7 6 7 7 8 8 8 9 10 7 8 12 19 17 21 18 21 23 25 22 23 25 23 25 25
27 25 23 19 15 13 11 8 7 6 6 7 7 3 7 8 8 15 14 16 16 20 19 23 25 25 24 24 26 23 25 27 26
30 28 24 20 16 15 11 8 8 7 6 7 4 2 3 10 8 9 14 14 18 21 23 28 29 27 26 27 25 26 29 28 27
29 27 24 20 17 15 12 9 6 7 8 8 6 6 7 5 7 6 10 14 18 22 28 28 27 29 27 27 26 28 28 27 27
30 28 24 20 18 15 11 8 6 7 8 8 9 9 8 8 9 19 18 20 23 25 24 26 28 26 27 27 29 28 28 26 27
Wind_Direction
94 85 86 90 116 150 179 191 218 239 257 269 290 62 91 77 57 36 344 11 6 12 25 30 22 3 347 318 301 304 300 308 266
89 76 81 89 104 122 162 191 211 234 250 281 17 80 89 97 77 3 321 340 351 358 7 8 355 335 334 335 327 307 294 281 297
103 86 81 92 96 106 118 128 133 125 102 70 60 68 68 83 63 356 338 338 340 346 340 341 327 335 331 328 313 309 304 297 297
154 103 88 106 108 113 116 118 110 96 78 69 61 57 60 71 29 307 314 316 324 318 314 318 322 319 319 316 319 328 311 288 285
194 187 154 137 136 131 116 106 95 75 54 35 38 64 60 36 323 304 308 303 315 312 310 312 311 311 311 306 304 303 299 295 290
191 207 152 158 143 126 115 98 76 62 36 21 36 69 34 350 285 278 280 299 311 307 305 307 304 305 307 306 306 299 293 294 289
198 207 227 200 167 138 110 84 91 70 49 357 29 55 261 268 282 290 300 309 305 303 299 297 299 300 299 298 298 298 296 293 292
217 226 208 200 158 138 26 88 136 157 225 264 281 282 275 273 282 291 301 303 297 294 286 292 293 295 296 296 298 298 296 297 295
212 188 190 184 118 146 194 232 255 280 291 287 291 292 298 293 289 291 296 297 294 279 285 290 295 296 295 297 300 302 302 302 302
168 180 209 159 193 211 228 260 265 277 279 296 306 306 301 299 291 293 293 295 288 285 285 295 299 298 299 300 303 304 304 302 300
185 197 184 196 218 243 247 262 274 278 292 297 299 304 302 302 298 292 291 292 293 287 292 297 300 302 301 301 302 303 304 304 303
195 211 211 208 213 241 243 250 260 275 297 303 304 301 300 298 290 287 285 289 295 291 295 297 299 300 300 299 299 301 303 302 301
213 210 206 209 209 232 237 239 244 274 301 310 309 306 310 303 288 284 275 292 297 294 296 300 302 303 300 300 301 302 302 301 301
210 207 211 213 229 234 228 232 257 288 307 317 317 318 316 307 289 277 282 279 286 300 303 298 302 303 308 309 307 305 305 303 303
209 211 210 219 230 237 230 224 258 289 313 327 321 322 324 316 302 282 288 299 305 304 301 301 301 305 307 309 307 307 305 300 300
211 212 215 219 225 231 222 234 264 292 318 325 331 318 323 319 315 297 288 293 304 306 306 303 307 308 306 307 308 303 301 302 303
211 212 213 219 225 226 220 241 266 293 321 334 340 354 310 300 313 307 296 296 293 299 302 305 307 308 309 309 306 298 301 301 302
210 209 213 215 222 222 216 237 268 292 314 331 343 338 261 299 291 289 284 299 297 305 302 306 310 311 309 309 305 304 306 304 307
209 207 208 218 219 213 220 234 259 294 311 317 324 311 284 292 291 268 260 279 278 286 299 300 304 308 311 309 307 306 305 304 306
208 205 207 212 212 211 218 236 263 287 302 312 313 308 298 289 278 292 296 287 286 297 300 305 306 309 314 314 310 305 305 301 304